Flag for Norway Weather past 2 weeks in Ålgård, Norway

Now
54 °F

Clear.


Feels Like: 54 °F
Forecast: 49 / 64 °F
Wind: 1 mph from North

Location: Stavanger / Sola

Current Time: Sep 18, 2014 at 1:46:29 AM

Latest Report: Sep 18, 2014 at 12:50 AM


Visibility: 10 mi

Pressure: 30.15 "Hg

Humidity: 100%

Dew point: 54 °F

Location of ÅlgårdLocation

Historic Weather in Ålgård — Graph

°F

Ålgård temperature yesterday

Maximum temperature yesterday: 70 °F (at 2:20 PM)
Minimum temperature yesterday: 50 °F (at 5:50 AM)
Average temperature yesterday: 61 °F

Past Weeks' High & Low Weather Summary

 TemperatureHumidityPressure
High73 °F (Sep 16, 4:20 PM)100% (Sep 6, 6:20 AM)30.45 "Hg (Sep 6, 6:20 AM)
Low48 °F (Sep 8, 7:20 AM)31% (Sep 16, 4:50 PM)29.80 "Hg (Sep 7, 1:50 AM)
Average59 °F79%30.17 "Hg
* Reported Sep 3 12:20 AM — Sep 18 12:50 AM, Ålgård, Weather by CustomWeather, © 2014

Note: Actual official high and low records may vary slightly from our data, if they occured in-between our weather recording intervals... More about our weather records

Advertising

Ålgård weather history for previous 24 hours

 ConditionsComfort  
Time TempWeatherWind HumidityBarometerVisibility
12:50 AM
Sep 18
54 °FClear.1 mph100%30.15 "Hg10 mi
12:20 AM54 °FClear.1 mph94%30.18 "Hg10 mi
11:50 PM
Sep 17
55 °FClear.2 mph94%30.18 "Hg10 mi
11:20 PM55 °FClear.1 mph94%30.18 "Hg10 mi
10:50 PM55 °FClear.3 mph94%30.18 "Hg10 mi
10:20 PM55 °FClear.2 mph94%30.18 "Hg10 mi
9:50 PM55 °FClear.3 mph94%30.18 "Hg10 mi
9:20 PM57 °FClear.3 mph94%30.18 "Hg10 mi
8:50 PM59 °FSunny.1 mph88%30.18 "Hg10 mi
8:20 PM61 °FSunny.No wind88%30.15 "Hg10 mi
7:50 PM61 °FSunny.3 mph88%30.15 "Hg10 mi
7:20 PM63 °FSunny.3 mph77%30.15 "Hg10 mi
6:50 PM63 °FPassing clouds.6 mph77%30.15 "HgN/A
6:20 PM64 °FPassing clouds.8 mph68%30.15 "HgN/A
5:50 PM64 °FPassing clouds.8 mph68%30.15 "HgN/A
5:20 PM64 °FPassing clouds.10 mph64%30.15 "HgN/A
4:50 PM66 °FPassing clouds.9 mph60%30.15 "HgN/A
4:20 PM70 °FPassing clouds.10 mph46%30.15 "HgN/A
3:50 PM70 °FPassing clouds.6 mph46%30.15 "HgN/A
3:20 PM68 °FSunny.9 mph49%30.15 "Hg10 mi
2:50 PM68 °FSunny.1 mph49%30.18 "Hg10 mi
2:20 PM70 °FSunny.2 mph50%30.18 "Hg10 mi
1:50 PM68 °FPassing clouds.5 mph46%30.18 "HgN/A
1:20 PM68 °FSunny.7 mph46%30.18 "Hg10 mi
12:50 PM68 °FSunny.7 mph46%30.18 "Hg10 mi
12:20 PM66 °FSunny.7 mph49%30.21 "Hg10 mi
11:50 AM66 °FSunny.8 mph46%30.21 "Hg10 mi
11:20 AM64 °FSunny.8 mph46%30.21 "Hg10 mi
10:50 AM64 °FSunny.8 mph46%30.21 "Hg10 mi
10:20 AM63 °FSunny.8 mph45%30.21 "Hg10 mi
9:50 AM63 °FSunny.6 mph49%30.21 "Hg10 mi
9:20 AM59 °FSunny.5 mph55%30.21 "Hg10 mi
8:50 AM55 °FSunny.2 mph63%30.21 "Hg10 mi
8:20 AM52 °FSunny.No wind72%30.21 "Hg10 mi
7:50 AM50 °FClear.1 mph76%30.21 "Hg10 mi
7:20 AM52 °FClear.1 mph72%30.21 "Hg10 mi
6:50 AM50 °FClear.1 mph76%30.21 "Hg10 mi
6:20 AM52 °FClear.1 mph67%30.21 "Hg10 mi
5:50 AM50 °FClear.No wind76%30.21 "Hg10 mi
4:50 AM55 °FClear.No wind63%30.21 "Hg10 mi
3:50 AM55 °FClear.6 mph59%30.21 "Hg10 mi
2:50 AM57 °FClear.7 mph55%30.21 "Hg10 mi
1:50 AM59 °FClear.6 mph51%30.21 "Hg10 mi
1:20 AM61 °FPassing clouds.7 mph52%30.21 "HgN/A
Weather by CustomWeather, © 2014

See weather overviewHow to use our weather pages